Airfield :
LOGIN :

Register | Disclaimer

   EN    FR    IT 

 










Legend :    VFR   Marginal VFR   IFR   Intensive IFR   Very Intensive IFR
Visi :
Ceiling :
>= 8 km
>= 3000ft
5 to 8 km
1000 to 3000 ft
1500m to 5 km
500 to 1000 ft
800 to 1500m
200 to 500 ft
< 800m
< 200 ft
Symbols :   Thunderstorms  Fog  Heavy snow  Heavy precipitations  Wind > 20 kt
SIGMETs :     Misc.  Thunderstorms  Icing  Turbulence  Mountain Waves  Volcanic Ashes






- Airport Elevation : 1202 ft
- IATA code : IGS


ETSI - Ingolstadt

CURRENT METAR :
  • 220520Z VRB01KT 6000 OVC005 M02/M04 Q1034 YLO YLO

EXPIRED METARs :
  • 220420Z VRB02KT 6000 OVC006 M02/M04 Q1034 YLO
  • 220320Z AUTO 10001KT 6000 // ////// M02/M04 Q1035 ///

TAF TAF ETSI
Valid from the 22 at 06:00 until the 22 at 15:00 UTC


220500Z 2206/2215 VRB03KT 5000 BR OVC005
BECMG 2210/2212 VRB03KT 8000 NSW OVC008
PROB30 2214/2215 35003KT 8000 NSW SCT008 BKN260



MET'MAP, your aeronautical weather chart ! - Copyright ORBIFLY December 2007 - Disclaimer

ORBIFLY MET'MAP TEAM :

Programming & Development : Alexandra Zaïnal
Concept & original design : Baudouin d'Aumeries
Assistance for programming : Marc-Olivier Méhu
Technical & hardware support : Manuel Goepfert

Contact : metmap@orbifly.com




SOURCES & CREDITS :

   NOAA